Weather History for KHKS - September, 2013

Change the Weather History Date:

Tuesday, September 17, 2013

  Actual Average (KJAN) Record (KJAN)
Temperature  
Mean Temperature 82 °F 75 °F  
Max Temperature 96 °F 87 °F 102 °F (1925)
Min Temperature 69 °F 64 °F 50 °F (1961)
Degree Days  
Heating Degree Days 0 0  
Month to date heating degree days 0  
Since 1 July heating degree days 0  
Cooling Degree Days 17 11  
Month to date cooling degree days 218  
Year to date cooling degree days 2017  
Growing Degree Days 32 (Base 50)    
Moisture  
Dew Point 61 °F    
Average Humidity 52    
Maximum Humidity 81    
Minimum Humidity 27    
Precipitation  
Precipitation 0.00 in 0.10 in 1.05 in (1913)
Month to date precipitation 1.70  
Year to date precipitation 38.98  
Sea Level Pressure  
Sea Level Pressure 30.04 in    
Wind  
Wind Speed 3 mph (East)    
Max Wind Speed 8 mph    
Max Gust Speed -    
Visibility 10 miles    
Events      
T = Trace of Precipitation, MM = Missing Value Source: NWS Daily Summary

Daily Weather History Graph

Daily Weather History Graph

Search for Another Location

Airport or City:

Trip Planner

Search our weather history database for the weather conditions in past years. The results will help you decide how hot, cold, wet, or windy it might be!

Date:

Astronomy

Sep. 17, 2013 Rise Set
Actual Time 6:46 AM CDT 7:03 PM CDT
Civil Twilight 6:21 AM CDT 7:28 PM CDT
Nautical Twilight 5:52 AM CDT 7:57 PM CDT
Astronomical Twilight 5:23 AM CDT 8:26 PM CDT
Moon 5:48 PM CDT (9/17) 4:45 AM CDT (9/17)
Length of Visible Light 13h 06m
Length of Day
12h 17m
Waxing Gibbous, 96% of the Moon is Illuminated
Sep 17
Waxing Gibbous
Sep 19
Full
Sep 26
Last Quarter
Oct 4
New
Oct 11
First Quarter

Hourly Weather History & Observations

Time (CDT) Temp. Heat Index Dew Point Humidity Pressure Visibility Wind Dir Wind Speed Gust Speed Precip Events Conditions
12:53 AM 75.9 °F - 64.9 °F 69% 30.07 in 10.0 mi NE 4.6 mph - N/A   Clear
1:53 AM 73.0 °F - 66.0 °F 79% 30.06 in 10.0 mi Calm Calm - N/A   Clear
2:53 AM 73.0 °F - 64.9 °F 76% 30.06 in 10.0 mi Calm Calm - N/A   Clear
3:53 AM 71.1 °F - 64.9 °F 81% 30.05 in 8.0 mi Calm Calm - N/A   Clear
4:53 AM 70.0 °F - 64.0 °F 81% 30.05 in 10.0 mi Calm Calm - N/A   Clear
5:53 AM 69.1 °F - 63.0 °F 81% 30.05 in 10.0 mi Calm Calm - N/A   Clear
6:53 AM 70.0 °F - 63.0 °F 78% 30.07 in 9.0 mi Calm Calm - N/A   Clear
7:53 AM 73.9 °F - 64.9 °F 73% 30.08 in 9.0 mi East 3.5 mph - N/A   Clear
8:53 AM 80.1 °F 81.5 °F 63.0 °F 56% 30.09 in 10.0 mi Variable 3.5 mph - N/A   Clear
9:53 AM 86.0 °F 87.3 °F 64.0 °F 48% 30.10 in 10.0 mi Variable 3.5 mph - N/A   Clear
10:53 AM 88.0 °F 88.7 °F 63.0 °F 43% 30.10 in 10.0 mi East 5.8 mph - N/A   Clear
11:53 AM 91.0 °F 90.9 °F 61.0 °F 36% 30.08 in 10.0 mi Calm Calm - N/A   Clear
12:53 PM 91.9 °F 90.8 °F 57.9 °F 32% 30.07 in 10.0 mi Variable 5.8 mph - N/A   Clear
1:53 PM 93.9 °F 92.9 °F 57.9 °F 30% 30.04 in 10.0 mi NNE 8.1 mph - N/A   Clear
2:53 PM 95.0 °F 93.4 °F 55.9 °F 27% 30.01 in 10.0 mi Variable 5.8 mph - N/A   Clear
3:53 PM 93.9 °F 92.6 °F 57.0 °F 29% 29.99 in 10.0 mi East 6.9 mph - N/A   Clear
4:53 PM 93.9 °F 92.9 °F 57.9 °F 30% 29.98 in 10.0 mi East 6.9 mph - N/A   Clear
5:53 PM 93.0 °F 92.3 °F 59.0 °F 32% 29.97 in 10.0 mi East 4.6 mph - N/A   Clear
6:53 PM 88.0 °F 87.1 °F 59.0 °F 37% 29.97 in 10.0 mi ENE 3.5 mph - N/A   Clear
7:53 PM 84.0 °F 83.8 °F 59.0 °F 43% 29.99 in 8.0 mi East 3.5 mph - N/A   Clear
8:53 PM 82.0 °F 82.0 °F 57.9 °F 44% 30.01 in 10.0 mi ESE 5.8 mph - N/A   Clear
9:53 PM 81.0 °F 81.0 °F 57.0 °F 44% 30.02 in 10.0 mi East 4.6 mph - N/A   Clear
10:53 PM 78.1 °F - 57.0 °F 48% 30.02 in 10.0 mi ESE 5.8 mph - N/A   Clear
11:53 PM 73.9 °F - 57.9 °F 57% 30.02 in 10.0 mi Calm Calm - N/A   Clear